軌道要素
Epoch 2024 Oct. 17.0 TT = JDT 2460600.5
T 2023 Aug. 7.52016 TT Rudenko
q 2.9106244 (2000.0) P Q
n 0.06918865 Peri. 191.77188 +0.22493271 +0.87858750
a 5.8764196 Node 92.34728 -0.85626226 +0.38457452
e 0.5046943 Incl. 24.93871 -0.46499485 -0.28317212
P 14.2
>From 244 observations 2022 Feb. 3-2024 Aug. 6, mean residual 0".6.
Nongravitational parameters A1 = +0.94, A2 = -0.0260.
|